Погода в Ширмовке

Украина / Винницкая область     49°33′49″N   29°05′35″E
темп.,
°C
ветер,
м/с
пор.,
м/с
влажн.,
%
обл.,
%
осадки,
мм/ч
давл.,
гПа
погр.,
м
15 апреля, чт
чт1500:00+8ююв227694 0.0 101316
03:00+6св118059 0.0 101310
06:00+6ссв3385100 0.0 101235
09:00+9ссв247550 0.0 1012314
12:00+13ссв3359100 0.6 10111259
15:00+13ссв555999 1.9 10111366
18:00+9сз5887100 1.1 1011521
21:00+7сз61093100 5.5 1012513
16 апреля, пт
пт1600:00+5зсз61192100 2.6 1012538
03:00+4зсз61093100 3.0 1012505
06:00+4зсз61094100 0.6 1012429
09:00+3зсз61095100 0.9 1013490
12:00+3зсз51097100 0.1 1014500
15:00+4зсз61296100 0.1 1015578
18:00+4зсз61190100 0.0 1016685
21:00+4зсз51094100 0.0 1018647
17 апреля, сб
сб1700:00+3зсз51092100 0.0 1019649
03:00+3зсз51088100 0.0 1019734
06:00+3зсз5984100 0.0 1020689
09:00+4з4881100 0.0 1021782
12:00+8з456568 0.0 10221135
15:00+9юз2359100 0.1 10211192
18:00+9ююв236189 0.0 1021771
21:00+7вюв2266100 0.0 102236
18 апреля, вс
вс1800:00+7в336388 0.0 102251
03:00+6в3468100 0.0 102272
06:00+6в357097 0.0 102296
09:00+9вюв4561100 0.0 1022540
12:00+11в445296 0.0 10221531
15:00+13в454993 0.0 10201846
18:00+12в4659100 0.0 1020562
21:00+10в41071100 0.1 1020305
19 апреля, пн
пн1900:00+8в41075100 0.0 1019270
03:00+7в3880100 0.0 1019234
06:00+7в41080100 0.1 1017302
09:00+7в61385100 1.8 1016536
12:00+8в71391100 2.9 1014822
15:00+8в61196100 4.6 1013733
18:00+8в4997100 0.3 1011537
21:00+8всв4998100 0.6 1008389